Temperature
18 18 18 17 17 17 17 17 17 17 17 17 17 16 16 16 16 16 16 16 16 16 16 16 16 16 16 16 16 16 16 16 16 16 16 16 15 15 16 15 15 15 15
18 18 17 17 17 17 17 17 17 17 17 17 16 16 16 16 16 16 16 16 16 16 16 16 16 16 16 16 16 16 16 16 16 15 15 15 15 15 15 15 15 15 15
18 18 17 17 17 17 16 16 16 16 16 16 16 16 16 16 16 16 16 15 15 15 15 15 15 15 15 15 15 15 15 15 15 15 15 15 15 15 15 15 15 15 15
17 17 17 17 16 16 16 16 16 16 16 16 16 16 16 16 16 15 15 15 15 15 15 15 15 15 15 15 15 15 15 15 15 15 15 14 14 14 15 14 14 14 15
17 17 16 16 16 16 16 16 16 16 16 16 16 16 15 15 15 15 15 15 15 15 15 14 14 14 14 14 14 14 14 15 14 14 14 14 14 14 14 14 14 14 14
17 16 16 16 16 15 16 16 15 15 15 15 15 15 15 15 15 15 15 15 14 14 14 14 14 14 14 14 14 14 14 14 14 14 14 14 13 13 14 14 14 14 14
16 16 16 15 15 15 15 15 15 15 15 15 15 15 15 15 15 15 15 15 14 14 14 14 14 14 14 14 14 14 14 14 14 14 13 13 13 13 13 14 14 14 14
16 15 15 15 15 15 15 14 14 14 14 14 14 14 14 14 14 14 14 14 14 14 14 14 14 14 13 13 14 14 13 13 13 13 13 13 13 13 13 13 13 13 13
15 15 15 15 14 14 14 14 14 14 14 14 14 14 14 14 14 14 14 14 14 13 13 13 13 13 13 13 13 13 13 13 13 12 13 13 13 13 13 13 13 13 13
15 15 14 14 14 14 14 14 14 14 13 13 13 14 14 14 14 14 14 14 13 13 13 13 13 13 13 12 12 12 12 12 12 12 12 12 12 12 12 12 12 12 12
15 14 14 14 14 14 14 14 14 13 13 13 13 13 13 13 13 13 13 13 13 13 12 12 12 12 12 12 12 12 12 12 12 12 12 12 12 12 12 12 12 12 12
14 14 14 14 14 14 14 14 13 13 13 13 13 13 13 13 13 13 13 13 13 12 12 12 12 12 12 12 12 11 11 11 11 11 11 11 11 11 12 12 12 12 12
14 14 14 14 14 14 14 14 14 14 13 13 13 13 12 13 13 13 13 12 12 12 12 12 12 12 11 11 11 11 11 11 11 11 11 11 11 11 11 11 11 11 11
14 14 14 14 14 14 13 13 13 13 13 13 13 12 12 12 12 12 12 12 12 12 11 11 11 11 11 11 11 11 11 11 11 10 10 10 11 11 11 11 11 11 11
14 14 14 14 14 14 13 13 13 13 13 13 13 13 12 12 12 12 12 12 12 11 11 11 11 11 11 11 11 11 11 10 10 10 10 10 10 11 11 11 11 11 10
14 14 14 14 14 13 13 13 13 13 13 13 13 13 12 12 12 12 12 12 11 11 11 11 10 10 10 10 10 10 10 10 10 10 10 10 10 10 10 10 10 10 10
13 13 13 14 14 13 13 13 13 13 13 13 13 12 12 12 12 12 12 11 11 11 11 11 10 10 10 10 10 10 10 10 10 10 10 9 9 10 10 10 10 10 10
13 13 13 13 13 13 13 13 13 13 13 13 12 12 12 12 12 12 11 11 11 11 10 10 10 10 10 10 10 10 10 10 9 9 9 9 9 9 9 9 9 9 9
13 13 13 13 13 13 13 13 13 13 13 12 12 12 12 12 11 11 11 11 10 10 10 10 10 10 10 10 10 10 9 9 9 9 9 9 9 9 9 9 9 9 9
13 13 13 13 13 13 13 13 13 13 12 12 12 12 12 11 11 11 11 10 10 10 10 10 10 10 10 10 10 9 9 9 9 9 9 9 9 9 9 9 9 9 9
12 13 13 13 12 13 13 13 12 12 12 12 12 11 11 11 11 11 11 10 10 10 10 10 10 10 10 9 9 9 9 9 9 9 8 8 8 8 8 8 8 8 8
12 12 12 12 12 12 12 12 12 12 12 12 11 11 11 11 11 10 10 10 10 10 10 9 9 9 9 9 9 9 9 9 9 9 8 8 8 8 8 8 8 8 8
12 12 12 12 12 12 12 12 11 11 11 11 11 11 11 10 10 10 10 9 9 9 9 9 9 9 9 9 9 9 9 9 9 8 8 8 8 8 8 8 8 8 8
12 12 12 12 12 11 11 11 11 11 11 11 11 11 10 10 10 10 9 9 9 9 9 9 9 9 9 9 8 8 8 8 8 8 8 8 8 8 7 7 7 7 7
12 12 12 11 11 11 11 11 11 11 11 10 10 10 10 10 10 9 9 9 9 9 9 8 8 8 9 8 8 8 8 8 8 8 8 8 8 8 7 7 7 7 7
11 11 11 11 11 11 11 10 10 10 10 10 10 10 10 10 9 9 9 9 9 8 8 8 8 8 8 8 8 8 8 8 8 8 8 8 8 8 7 7 7 7 7
Wind_Speed
4 3 2 2 2 2 1 1 0 1 1 1 2 2 2 2 2 2 1 1 1 1 2 1 1 2 2 2 1 2 2 2 3 2 1 1 1 1 2 3 5 6 6
3 3 2 2 2 1 1 1 1 1 1 1 1 1 2 2 2 2 3 2 1 1 2 2 2 2 2 2 2 2 2 2 2 3 2 2 2 2 3 4 4 5 5
3 3 2 2 2 1 0 1 0 0 1 1 1 1 1 2 2 3 2 2 2 1 1 1 2 2 2 3 3 3 2 3 1 2 3 2 2 2 2 4 3 3 5
3 3 3 2 2 1 1 1 1 1 1 1 1 2 2 2 3 3 3 2 1 2 2 1 1 2 2 3 3 2 2 2 2 2 2 2 2 2 2 3 3 3 4
2 3 3 2 1 1 0 1 1 1 1 1 2 2 2 2 3 3 3 2 1 1 1 1 1 3 4 3 3 3 3 2 2 2 2 2 2 2 3 3 3 3 4
2 3 2 2 1 0 0 0 0 1 2 2 2 2 3 3 6 7 5 3 2 1 2 2 1 2 3 3 3 3 3 3 3 3 3 3 3 2 3 4 3 3 3
2 2 2 1 1 1 1 2 2 2 2 2 2 3 2 4 6 7 7 3 2 1 1 2 2 3 3 3 3 3 3 3 3 3 4 4 4 3 3 4 3 4 4
2 1 1 1 1 1 1 1 1 1 1 1 1 2 2 3 5 6 6 3 2 2 1 1 2 2 3 3 3 3 3 3 3 4 4 4 4 3 3 4 5 5 4
1 1 1 1 0 1 1 1 1 1 1 1 1 1 2 3 4 4 4 2 2 2 1 1 1 1 4 4 3 3 3 4 5 3 2 4 5 5 4 3 3 3 4
1 1 1 1 1 1 0 0 1 1 2 1 1 1 1 1 2 3 4 3 2 3 1 0 1 2 2 3 3 3 3 4 4 5 4 4 4 4 5 4 3 4 4
1 1 1 1 1 1 0 1 1 2 2 2 2 1 0 1 2 2 2 2 3 3 3 2 1 1 2 3 3 3 4 4 4 4 3 3 2 2 2 3 3 3 4
1 0 0 1 2 1 0 1 2 3 3 2 1 1 0 0 1 1 2 3 3 3 3 3 2 2 2 3 3 5 5 4 3 3 3 3 2 2 2 3 3 3 3
1 1 1 1 2 1 2 2 3 2 2 1 2 2 1 1 0 1 2 3 4 3 3 4 4 3 3 3 4 4 3 2 3 3 3 3 3 2 2 2 3 3 3
1 1 1 2 2 1 1 1 1 2 2 2 2 2 1 1 2 2 2 2 3 3 3 3 3 4 3 3 3 2 2 2 3 4 4 4 3 2 2 2 2 2 2
2 2 2 2 2 1 1 1 1 1 1 2 2 2 2 2 2 2 2 2 3 3 3 2 2 1 2 2 2 2 2 2 3 3 3 3 3 3 2 2 2 2 2
3 3 3 2 1 1 1 1 1 2 2 2 2 2 1 2 2 2 3 4 5 3 2 2 2 2 3 3 3 2 2 2 2 3 3 3 2 3 2 2 2 2 2
3 4 4 3 2 2 2 2 2 2 3 3 4 4 4 5 5 5 6 5 5 2 2 3 3 3 3 3 3 3 3 2 2 2 3 3 3 2 2 2 3 2 2
4 4 4 3 3 2 3 3 3 3 3 3 4 7 7 7 8 7 5 3 3 3 3 3 3 3 3 3 3 3 3 3 2 2 3 3 3 3 3 3 3 3 2
5 4 3 3 3 3 4 4 3 3 3 2 2 3 6 7 7 7 5 4 5 4 4 4 4 4 3 3 3 3 3 3 3 3 3 3 3 3 3 3 3 3 3
3 5 4 4 4 4 3 4 3 3 4 3 2 2 1 2 3 3 4 5 5 4 4 4 3 3 3 3 3 3 3 3 3 3 3 3 3 3 3 4 3 3 3
4 4 5 5 4 4 4 4 3 4 4 4 3 2 2 3 4 3 3 3 4 4 4 4 4 3 3 3 4 4 4 3 2 3 3 4 4 3 3 4 3 3 3
5 4 3 4 3 3 4 3 4 4 5 5 3 3 3 3 4 3 3 3 4 4 4 4 4 4 3 3 3 4 4 3 3 3 3 4 4 4 4 4 3 3 3
5 4 4 3 3 3 4 4 4 4 4 5 5 3 3 4 4 3 3 3 4 4 4 3 4 4 4 4 4 3 3 3 3 4 4 4 4 5 4 4 4 4 3
4 4 5 4 4 4 4 4 4 4 5 5 5 4 3 3 4 4 4 4 4 3 3 3 4 4 4 4 4 4 4 4 5 5 5 4 5 5 4 4 4 4 4
5 5 5 5 4 4 4 4 5 5 5 5 5 4 4 3 3 3 4 4 4 4 4 4 4 4 4 4 4 5 5 5 6 6 6 5 6 6 5 5 5 4 4
4 5 5 5 5 4 5 5 5 5 5 4 4 4 4 4 3 3 3 3 4 4 4 4 5 4 4 4 4 5 4 3 5 7 6 5 5 5 5 4 5 4 4
Wind_Direction
119 131 143 140 140 147 137 125 358 358 3 13 349 349 354 356 344 332 317 334 357 339 319 326 325 320 325 302 281 273 266 251 248 260 238 221 221 221 229 215 201 196 198
107 109 103 117 121 124 120 96 49 9 356 355 352 335 336 348 345 331 322 334 351 339 330 337 324 314 320 314 308 290 282 267 240 253 261 247 244 229 229 241 225 219 211
105 107 96 89 85 78 70 107 99 10 349 346 346 331 336 338 341 333 322 319 331 335 333 320 319 319 308 301 298 294 286 281 257 249 261 259 258 260 258 267 256 241 234
87 108 99 87 78 69 45 25 6 15 12 352 352 350 342 342 345 340 329 315 337 344 346 352 345 327 317 308 297 306 293 293 278 264 262 268 272 276 262 262 268 265 263
77 86 86 91 94 81 64 26 5 359 358 10 354 348 353 347 338 336 322 310 307 301 310 316 22 26 16 348 318 315 302 291 285 283 270 278 276 277 272 263 263 259 262
89 81 77 76 64 41 68 46 33 22 12 12 8 8 2 346 2 3 349 323 324 319 324 326 345 27 14 13 345 311 288 274 277 276 279 278 282 276 284 274 271 265 261
89 88 87 90 70 35 22 34 22 16 17 13 11 14 12 11 14 7 353 329 323 345 357 346 333 355 26 354 348 337 308 268 252 260 276 271 271 274 272 272 272 267 259
98 81 63 75 68 44 42 40 6 351 355 0 7 6 1 9 14 6 350 322 319 329 340 348 356 3 345 354 341 337 323 320 291 266 264 273 271 273 264 265 270 271 264
98 85 15 17 30 41 25 10 353 337 334 324 332 355 0 4 13 6 357 317 325 321 322 15 24 355 351 359 349 327 323 322 330 328 291 274 263 268 282 292 288 286 278
57 55 351 340 335 317 303 315 309 296 281 281 300 300 336 359 8 2 350 328 330 319 309 277 355 337 322 335 320 311 313 312 321 327 319 297 270 253 250 249 268 278 278
57 83 13 339 288 268 234 242 256 256 260 257 260 259 12 26 45 18 343 328 322 320 322 317 293 292 277 292 301 297 290 299 302 297 298 295 271 248 234 238 251 261 271
23 43 25 317 299 299 277 255 249 252 257 256 271 277 266 89 61 349 303 288 302 302 308 320 328 291 273 279 290 300 295 302 296 296 297 298 299 290 275 252 254 252 257
20 349 330 307 296 283 245 269 270 271 284 291 278 281 280 283 279 299 282 286 303 295 311 314 311 287 278 272 273 291 298 299 295 297 296 293 286 284 288 274 260 243 256
335 294 270 257 263 303 307 321 335 335 328 323 314 313 319 4 358 336 294 289 300 301 309 309 277 263 264 275 286 288 274 288 291 293 296 295 300 309 308 307 300 300 287
289 275 254 243 225 226 338 337 356 340 265 268 299 329 334 333 325 326 309 315 318 325 325 307 304 306 296 290 283 261 254 261 274 286 290 301 315 320 313 308 299 293 290
282 280 278 266 231 213 196 254 323 261 253 217 214 229 280 277 270 281 280 279 286 300 316 301 308 305 297 294 285 282 275 278 279 287 295 296 298 302 308 311 304 295 298
285 291 291 293 273 245 235 242 249 259 268 260 249 237 237 253 267 270 273 285 286 267 255 275 285 287 284 284 290 292 283 276 285 289 292 291 292 293 295 295 293 288 292
269 271 281 283 283 281 266 256 252 254 254 254 249 240 241 245 254 260 266 291 290 260 255 268 274 276 276 283 291 294 297 294 287 294 299 295 293 298 301 294 290 287 286
284 277 276 281 278 274 275 277 274 267 271 263 254 249 235 243 253 258 250 253 264 271 272 275 283 291 295 294 290 290 288 282 285 282 283 286 284 285 287 289 293 299 296
277 288 280 277 277 281 278 281 293 300 297 291 279 281 259 248 260 254 234 247 262 269 274 276 278 282 287 292 289 281 281 279 275 280 285 281 282 285 283 281 283 286 285
277 273 268 271 278 286 292 300 301 298 295 293 296 293 264 273 273 270 265 263 274 277 277 283 278 274 272 273 283 286 286 287 280 272 281 289 292 289 285 285 285 283 288
285 281 279 279 286 292 296 293 287 294 301 299 295 283 238 270 285 289 289 288 284 278 280 281 284 287 288 288 290 293 291 288 289 287 282 284 286 285 283 283 282 284 286
287 286 281 283 286 284 287 292 300 304 303 299 298 298 285 280 287 290 289 289 286 286 288 288 286 290 295 303 301 289 289 299 297 290 284 284 283 280 279 283 285 285 279
294 294 294 291 289 289 289 293 296 295 292 292 294 297 296 293 295 304 308 307 302 298 296 292 286 292 302 307 306 306 313 313 302 291 283 272 272 275 276 274 275 274 277
298 302 300 299 301 299 294 292 292 294 294 293 292 295 299 300 297 299 297 299 299 296 297 296 293 291 297 306 311 308 317 319 312 308 290 274 266 262 264 266 264 263 269
300 302 301 300 300 299 293 288 285 288 294 299 301 300 301 301 300 292 287 291 294 292 291 296 299 298 302 300 300 315 313 307 304 302 295 278 268 265 267 269 268 263 263
Height
1518 1519 1519 1519 1519 1520 1520 1520 1520 1520 1519 1519 1518 1518 1518 1517 1517 1517 1517 1517 1516 1516 1516 1516 1516 1516 1516 1516 1517 1517 1517 1518 1517 1517 1517 1517 1517 1517 1516 1517 1517 1517 1517
1518 1518 1519 1518 1519 1519 1519 1519 1519 1519 1518 1517 1517 1517 1516 1516 1516 1516 1515 1515 1515 1514 1514 1514 1514 1514 1514 1514 1514 1514 1515 1515 1515 1514 1514 1515 1514 1514 1514 1514 1514 1514 1514
1518 1518 1518 1518 1518 1518 1518 1518 1518 1517 1517 1516 1516 1515 1515 1515 1514 1514 1514 1513 1513 1513 1512 1512 1512 1512 1511 1511 1512 1511 1512 1512 1512 1511 1511 1511 1511 1511 1511 1511 1511 1511 1511
1517 1517 1517 1517 1517 1517 1517 1516 1516 1516 1515 1515 1514 1514 1513 1513 1512 1512 1512 1511 1511 1511 1510 1510 1510 1509 1509 1509 1509 1509 1509 1509 1509 1508 1508 1508 1507 1507 1507 1507 1506 1506 1507
1516 1516 1516 1516 1516 1516 1516 1516 1515 1515 1514 1513 1512 1512 1511 1511 1510 1510 1510 1509 1509 1508 1508 1508 1507 1507 1507 1507 1506 1506 1506 1505 1505 1505 1505 1504 1504 1503 1503 1503 1503 1502 1502
1515 1516 1516 1515 1515 1515 1514 1514 1514 1513 1512 1511 1511 1510 1509 1509 1508 1508 1507 1507 1507 1506 1505 1505 1505 1504 1504 1503 1503 1503 1503 1503 1502 1501 1501 1500 1500 1500 1500 1499 1499 1499 1498
1515 1514 1514 1514 1514 1514 1513 1513 1512 1511 1510 1510 1509 1508 1507 1507 1506 1505 1505 1505 1504 1503 1503 1502 1502 1502 1501 1500 1499 1499 1499 1499 1499 1499 1498 1497 1496 1496 1496 1495 1495 1495 1495
1514 1513 1513 1513 1512 1512 1512 1511 1510 1510 1509 1508 1507 1506 1505 1505 1504 1503 1503 1502 1501 1501 1500 1500 1499 1498 1498 1497 1496 1495 1495 1495 1495 1495 1494 1493 1493 1493 1493 1493 1492 1492 1492
1513 1512 1512 1512 1511 1510 1510 1508 1508 1508 1507 1507 1506 1505 1503 1502 1502 1501 1500 1499 1498 1498 1497 1497 1496 1495 1495 1494 1493 1492 1491 1491 1492 1491 1491 1490 1489 1489 1489 1489 1488 1488 1487
1512 1511 1511 1510 1509 1509 1508 1507 1507 1506 1506 1505 1504 1503 1502 1500 1499 1498 1498 1497 1495 1495 1494 1493 1493 1492 1492 1491 1490 1489 1488 1488 1488 1487 1487 1486 1486 1485 1485 1485 1484 1484 1484
1511 1510 1510 1509 1508 1508 1507 1506 1506 1505 1505 1504 1502 1501 1500 1499 1497 1496 1495 1494 1493 1492 1491 1491 1490 1489 1489 1488 1488 1487 1487 1486 1485 1485 1484 1483 1483 1482 1482 1481 1481 1481 1481
1510 1509 1509 1508 1507 1507 1506 1505 1504 1504 1503 1502 1501 1500 1499 1497 1496 1494 1493 1492 1491 1490 1489 1488 1488 1487 1486 1486 1485 1485 1485 1484 1483 1482 1481 1481 1480 1480 1479 1479 1479 1478 1478
1508 1508 1507 1507 1506 1505 1504 1503 1503 1503 1502 1501 1501 1500 1498 1496 1494 1493 1492 1490 1489 1488 1487 1486 1486 1485 1484 1483 1483 1483 1482 1481 1481 1480 1479 1479 1478 1477 1477 1476 1475 1475 1475
1507 1506 1506 1505 1505 1504 1504 1502 1502 1501 1500 1500 1499 1498 1497 1495 1493 1491 1490 1488 1487 1486 1485 1484 1484 1483 1482 1482 1481 1480 1480 1479 1479 1478 1477 1477 1476 1475 1474 1473 1472 1471 1471
1506 1506 1505 1504 1503 1502 1502 1501 1500 1499 1498 1497 1497 1496 1495 1493 1492 1490 1488 1487 1485 1484 1483 1482 1481 1481 1480 1479 1479 1478 1477 1477 1476 1476 1475 1474 1473 1472 1471 1470 1470 1469 1468
1505 1504 1504 1503 1502 1501 1500 1499 1498 1498 1496 1495 1494 1494 1492 1491 1490 1488 1487 1486 1484 1483 1482 1480 1480 1479 1478 1477 1477 1476 1475 1474 1474 1473 1472 1471 1470 1469 1469 1468 1467 1466 1465
1503 1502 1502 1501 1500 1499 1498 1497 1496 1495 1494 1493 1492 1491 1490 1488 1487 1486 1485 1484 1483 1481 1480 1479 1478 1477 1477 1476 1475 1474 1473 1472 1471 1470 1469 1468 1467 1467 1466 1465 1464 1463 1463
1500 1500 1499 1499 1498 1497 1496 1495 1494 1493 1491 1490 1489 1488 1487 1485 1484 1483 1482 1481 1480 1479 1478 1477 1476 1476 1475 1474 1473 1472 1471 1470 1468 1467 1466 1465 1465 1464 1463 1462 1461 1461 1460
1498 1497 1497 1496 1495 1494 1493 1493 1492 1491 1489 1487 1486 1485 1484 1482 1481 1481 1479 1478 1477 1476 1476 1475 1474 1473 1472 1471 1470 1469 1468 1466 1465 1464 1463 1462 1461 1461 1460 1459 1459 1458 1457
1495 1494 1493 1493 1492 1492 1491 1490 1489 1488 1487 1485 1484 1482 1481 1479 1478 1477 1476 1475 1475 1473 1472 1471 1470 1469 1468 1467 1467 1465 1464 1463 1462 1461 1460 1459 1458 1457 1456 1456 1455 1455 1454
1493 1491 1490 1489 1489 1488 1488 1487 1486 1485 1484 1483 1482 1480 1479 1477 1475 1474 1473 1472 1471 1470 1469 1467 1466 1465 1464 1463 1463 1462 1461 1459 1458 1457 1456 1455 1454 1453 1453 1452 1451 1451 1450
1490 1489 1488 1487 1486 1485 1484 1484 1483 1482 1481 1480 1478 1477 1475 1474 1473 1471 1470 1469 1467 1466 1465 1464 1462 1462 1461 1460 1459 1458 1456 1455 1454 1453 1452 1452 1450 1449 1449 1448 1448 1447 1446
1488 1486 1485 1484 1483 1482 1481 1481 1480 1479 1477 1476 1475 1474 1472 1471 1469 1468 1467 1465 1464 1462 1461 1460 1459 1457 1456 1456 1454 1453 1452 1451 1450 1449 1449 1447 1446 1445 1444 1444 1444 1443 1443
1485 1484 1483 1481 1480 1479 1478 1477 1476 1475 1474 1473 1471 1470 1469 1467 1466 1464 1463 1461 1460 1458 1457 1455 1454 1453 1452 1451 1450 1449 1448 1447 1446 1445 1444 1443 1442 1441 1440 1440 1440 1440 1439
1483 1481 1480 1479 1477 1476 1475 1473 1473 1472 1471 1469 1468 1467 1465 1464 1462 1460 1459 1457 1456 1454 1453 1452 1450 1449 1448 1446 1445 1444 1443 1442 1441 1440 1439 1438 1438 1437 1437 1436 1436 1436 1436
1480 1479 1477 1476 1474 1473 1472 1470 1469 1468 1467 1466 1464 1463 1462 1460 1459 1457 1455 1454 1452 1451 1449 1448 1446 1445 1443 1442 1440 1439 1438 1437 1436 1435 1435 1434 1433 1433 1433 1432 1432 1432 1432